[[{"header":{"parameterUnit":"m.s-1","parameterCategory":1,"la1":30.2991,"la2":30.254,"lo1":-89.0895,"lo2":-89.0444,"dy":0.0017,"dx":0.0017,"nx":28,"ny":28,"refTime":"2023-03-21T21:00:00:Z","depth":0,"parameterNumber":2,"parameterNumberName":"U-component_of_WINDS"},"data":[0,0,0,0,0,0,0,0,0,0,0,0,0,0,0,0,0,0,0,0,0,0,0,0,0,0,0,0,0,0,0,0,0,0,0,0,0,0,0,0,0,0,0,0,0,0,0,0,0,0,0,0,0,0,0,0,0,0,-0.9288,-0.9288,0,-0.928,-0.928,-0.928,-0.9263,-0.9263,-0.9262,-0.9262,-0.9255,-0.9256,-0.9256,0,0,0,0,0,0,0,0,0,0,0,0,0,-0.929,-0.929,-0.9288,-0.9288,-0.9288,-0.928,-0.928,-0.928,-0.9263,-0.9263,-0.9262,-0.9262,-0.9255,-0.9256,-0.9256,0,0,0,0,0,0,0,0,0,0,0,0,0,-0.9287,-0.929,-0.9288,-0.9278,-0.9277,-0.928,-0.928,-0.928,-0.9263,-0.9263,-0.9262,-0.9261,-0.9255,-0.9256,-0.9256,-0.9268,0,0,-0.9257,-0.9257,0,0,0,0,0,0,0,0,-0.9287,-0.9287,-0.928,-0.9279,-0.9278,-0.9272,-0.9279,-0.9276,-0.9263,-0.9269,-0.9262,-0.9261,-0.9261,-0.9261,-0.9261,-0.9268,-0.9267,-0.9257,-0.9257,-0.9257,-0.9257,0,0,0,0,0,0,0,-0.9287,-0.9287,-0.9285,-0.928,-0.9279,-0.9275,-0.9274,-0.9278,-0.9268,-0.9268,-0.9267,-0.9266,-0.9261,-0.9261,-0.9261,-0.9267,-0.9257,-0.9257,-0.9257,-0.9257,-0.9285,-0.9286,0,0,0,0,0,0,-0.9289,-0.9287,-0.9285,-0.9285,-0.9281,-0.9276,-0.9274,-0.9275,-0.9268,-0.9267,-0.9266,-0.9265,-0.9261,-0.926,-0.926,-0.9275,-0.9257,-0.9257,-0.9257,-0.9284,-0.9285,-0.9286,0,0,0,0,0,0,-0.9289,-0.9289,-0.9286,-0.9286,-0.9285,-0.9276,-0.9276,-0.9275,-0.9274,-0.9267,-0.9265,-0.9268,-0.926,-0.926,-0.9266,-0.9274,-0.9257,-0.9257,-0.9284,-0.9285,-0.9286,-0.9304,0,0,0,0,0,0,-0.9289,-0.9289,-0.9293,-0.9286,-0.9285,-0.9291,-0.9277,-0.9275,-0.9275,-0.9273,-0.9268,-0.9267,-0.926,-0.9266,-0.9267,-0.9274,-0.9258,-0.9283,-0.9284,-0.9285,-0.9303,-0.9305,-0.9308,0,0,0,0,0,-0.9289,-0.9298,-0.9293,-0.9293,-0.929,-0.9292,-0.9291,-0.9283,-0.9275,-0.928,-0.9275,-0.9267,-0.9274,-0.9267,-0.9267,-0.9275,-0.9282,-0.9284,-0.9285,-0.9301,-0.9305,-0.9308,0,0,0,0,0,0,-0.9307,-0.9297,-0.9291,-0.9298,-0.9296,-0.9289,-0.9294,-0.9287,-0.9286,-0.9285,-0.9275,-0.9274,-0.9282,-0.9279,-0.9272,-0.9288,-0.9277,-0.9278,-0.9289,-0.9292,-0.9295,-0.9295,-0.9258,0,0,0,0,0,-0.9311,-0.9313,-0.9305,-0.9312,-0.9311,-0.9303,-0.9303,-0.9297,-0.9294,-0.9293,-0.9289,-0.9287,-0.9289,-0.929,-0.9292,-0.9302,-0.9301,-0.9308,-0.9311,-0.9313,-0.9314,-0.9321,-0.9324,-0.929,-0.929,-0.929,0,0,-0.9321,-0.9316,-0.9318,-0.9316,-0.9313,-0.9316,-0.9302,-0.9305,-0.9308,-0.9294,-0.93,-0.9297,-0.9294,-0.9303,-0.9306,-0.9301,-0.9323,-0.9314,-0.9316,-0.9317,-0.9322,-0.9326,-0.9328,-0.9291,-0.9291,-0.9291,0,0,-0.934,-0.9336,-0.9342,-0.934,-0.9336,-0.9331,-0.9332,-0.9326,-0.9324,-0.9329,-0.9319,-0.9322,-0.9325,-0.9324,-0.9324,-0.9344,-0.9336,-0.9345,-0.9358,-0.9364,-0.9367,-0.9369,-0.9377,-0.938,-0.9346,-0.9346,-0.9346,0,-0.9353,-0.9356,-0.9346,-0.9351,-0.935,-0.9338,-0.9345,-0.9343,-0.934,-0.934,-0.9334,-0.9338,-0.9336,-0.9344,-0.9349,-0.9349,-0.9351,-0.9345,-0.9367,-0.937,-0.9372,-0.9379,-0.9382,-0.9347,-0.9347,-0.9347,-0.9347,0,-0.9372,-0.9375,-0.938,-0.9377,-0.9378,-0.9383,-0.9375,-0.9377,-0.9371,-0.9366,-0.9373,-0.9369,-0.937,-0.9372,-0.9366,-0.938,-0.9377,-0.9369,-0.9358,-0.9376,-0.9383,-0.9385,-0.9349,-0.9348,-0.9348,-0.9348,0,0,-0.9402,-0.9394,-0.9396,-0.9395,-0.9391,-0.9393,-0.9398,-0.9398,-0.94,-0.9399,-0.9404,-0.9407,-0.94,-0.94,-0.9394,-0.94,-0.9417,-0.9391,-0.9391,-0.9397,-0.9433,-0.9439,-0.9442,-0.9412,-0.9412,-0.9413,-0.9433,0,-0.942,-0.9428,-0.942,-0.943,-0.9433,-0.9422,-0.9426,-0.9425,-0.9421,-0.9423,-0.9419,-0.9422,-0.9412,-0.9412,-0.9417,-0.9413,-0.9424,-0.9412,-0.9417,-0.9417,-0.9418,-0.9446,-0.9452,-0.9471,-0.9436,-0.9436,-0.9437,0,-0.9443,-0.9442,-0.9452,-0.9448,-0.9449,-0.9453,-0.9453,-0.9455,-0.9453,-0.945,-0.945,-0.9443,-0.9449,-0.9438,-0.9447,-0.9439,-0.944,-0.9439,-0.944,-0.944,-0.9428,-0.9447,-0.9477,-0.9481,-0.9441,-0.944,-0.944,0,-0.9464,-0.9466,-0.9472,-0.9472,-0.9466,-0.947,-0.9468,-0.9465,-0.9466,-0.9467,-0.9468,-0.9469,-0.947,-0.9471,-0.9465,-0.9458,-0.9475,-0.9463,-0.9473,-0.9473,-0.9477,-0.9477,-0.9509,-0.9478,-0.9478,-0.9478,-0.9478,0,-0.9486,-0.9492,-0.9482,-0.9486,-0.9494,-0.9485,-0.9493,-0.949,-0.9488,-0.9492,-0.9482,-0.9487,-0.9478,-0.9481,-0.9477,-0.9485,-0.9485,-0.9484,-0.9482,-0.9485,-0.9485,-0.9486,-0.9484,-0.9478,-0.9478,-0.9478,-0.9478,0,-0.9511,-0.9504,-0.951,-0.9505,-0.9504,-0.951,-0.9505,-0.9509,-0.9505,-0.951,-0.9511,-0.9505,-0.9508,-0.9502,-0.9505,-0.9502,-0.9514,-0.951,-0.9514,-0.9513,-0.9524,-0.9523,-0.9557,-0.9562,-0.9528,-0.9528,-0.9528,0,-0.9525,-0.953,-0.9525,-0.9527,-0.9525,-0.9528,-0.9529,-0.9521,-0.9523,-0.9522,-0.9526,-0.9529,-0.9531,-0.9537,-0.9533,-0.9536,-0.9533,-0.9544,-0.9533,-0.9535,-0.9534,-0.9533,-0.9534,-0.9547,-0.9547,-0.9548,-0.9548,0,-0.9552,-0.9548,-0.955,-0.955,-0.9552,-0.9552,-0.9552,-0.9554,-0.9545,-0.9548,-0.9551,-0.9553,-0.9556,-0.9559,-0.9561,-0.956,-0.9553,-0.9552,-0.9554,-0.9557,-0.9559,-0.9558,-0.9521,-0.9551,-0.9551,-0.955,-0.955,-0.955,-0.9572,-0.9576,-0.9574,-0.9576,-0.9575,-0.9575,-0.9579,-0.9575,-0.9578,-0.9579,-0.9575,-0.9579,-0.9578,-0.958,-0.958,-0.9584,-0.9579,-0.9582,-0.9583,-0.9584,-0.9586,-0.9558,-0.9584,-0.9584,-0.9584,-0.9584,-0.9584,0,-0.9599,-0.9597,-0.9599,-0.9598,-0.9601,-0.9593,-0.9593,-0.9595,-0.96,-0.9599,-0.9601,-0.9606,-0.9609,-0.9605,-0.9608,-0.9612,-0.9609,-0.9614,-0.9613,-0.9613,-0.959,-0.9588,-0.9616,-0.9616,-0.9616,-0.9616,-0.9616,-0.9616,-0.9613,-0.962,-0.9616,-0.9623,-0.9621,-0.9625,-0.9626,-0.9626,-0.9625,-0.9631,-0.9633,-0.9631,-0.963,-0.9632,-0.9636,-0.9635,-0.9636,-0.9642,-0.964,-0.9618,-0.9615,-0.9612,-0.961,-0.9642,-0.9642,-0.9663,-0.9663,-0.9663]},{"header":{"parameterUnit":"m.s-1","parameterCategory":1,"la1":30.2991,"la2":30.254,"lo1":-89.0895,"lo2":-89.0444,"dy":0.0017,"dx":0.0017,"nx":28,"ny":28,"refTime":"2023-03-21T21:00:00:Z","depth":0,"parameterNumber":3,"parameterNumberName":"V-component_of_WINDS"},"data":[0,0,0,0,0,0,0,0,0,0,0,0,0,0,0,0,0,0,0,0,0,0,0,0,0,0,0,0,0,0,0,0,0,0,0,0,0,0,0,0,0,0,0,0,0,0,0,0,0,0,0,0,0,0,0,0,0,0,3.5191,3.519,0,3.5138,3.5137,3.5137,3.5091,3.509,3.509,3.5089,3.5031,3.503,3.5029,0,0,0,0,0,0,0,0,0,0,0,0,0,3.5248,3.5247,3.5191,3.519,3.519,3.5138,3.5137,3.5136,3.5091,3.509,3.5089,3.5089,3.5032,3.503,3.5029,0,0,0,0,0,0,0,0,0,0,0,0,0,3.5212,3.5247,3.5191,3.5161,3.5157,3.5138,3.5137,3.5136,3.5091,3.509,3.5089,3.5089,3.5032,3.5031,3.5029,3.5035,0,0,3.5024,3.5023,0,0,0,0,0,0,0,0,3.5214,3.521,3.5166,3.5163,3.5159,3.512,3.5136,3.5102,3.5091,3.5116,3.5089,3.5088,3.5061,3.5057,3.5049,3.5032,3.5029,3.5024,3.5023,3.5022,3.5022,0,0,0,0,0,0,0,3.5217,3.5212,3.517,3.5165,3.5161,3.5148,3.5142,3.5129,3.5093,3.5114,3.511,3.5105,3.5059,3.5051,3.5047,3.5029,3.5024,3.5023,3.5022,3.5021,3.5011,3.5011,0,0,0,0,0,0,3.5224,3.5214,3.5171,3.5168,3.5185,3.5148,3.5141,3.5133,3.5093,3.5087,3.5106,3.5103,3.5054,3.5049,3.5045,3.5047,3.5022,3.5021,3.502,3.501,3.5011,3.5011,0,0,0,0,0,0,3.5226,3.5221,3.5174,3.519,3.5183,3.5148,3.5139,3.5133,3.5124,3.5087,3.508,3.5104,3.5053,3.5047,3.5037,3.5045,3.502,3.5019,3.5009,3.501,3.5011,3.5053,0,0,0,0,0,0,3.5228,3.5222,3.5225,3.5191,3.5183,3.5168,3.514,3.5132,3.5122,3.5118,3.5084,3.5077,3.5052,3.504,3.5036,3.5042,3.5017,3.5008,3.501,3.5011,3.5051,3.5055,3.5059,0,0,0,0,0,3.523,3.5238,3.5225,3.522,3.5186,3.5169,3.5164,3.5136,3.5123,3.5124,3.51,3.5078,3.5045,3.5039,3.5034,3.504,3.5008,3.5009,3.5011,3.5049,3.5054,3.5059,0,0,0,0,0,0,3.5273,3.5233,3.5218,3.5216,3.5196,3.5161,3.5163,3.5143,3.5125,3.5122,3.5087,3.5079,3.5073,3.5055,3.505,3.5042,3.5023,3.5024,3.5054,3.5059,3.5063,3.5067,3.5016,0,0,0,0,0,3.5283,3.5274,3.5239,3.524,3.5231,3.5199,3.519,3.517,3.5148,3.5139,3.5114,3.5092,3.5076,3.5067,3.505,3.5048,3.5039,3.5049,3.5054,3.5057,3.5058,3.5053,3.5057,3.5017,3.5016,3.5016,0,0,3.5302,3.5279,3.5275,3.5248,3.5231,3.522,3.5192,3.5183,3.5174,3.5137,3.5126,3.5107,3.508,3.5073,3.5069,3.5059,3.5067,3.5059,3.5063,3.5061,3.5055,3.5059,3.5062,3.5018,3.5017,3.5017,0,0,3.5331,3.5314,3.5313,3.5295,3.5269,3.5247,3.5247,3.5215,3.5201,3.5189,3.5161,3.5149,3.5123,3.5104,3.5091,3.5112,3.509,3.5108,3.513,3.5126,3.5129,3.5131,3.5137,3.514,3.5109,3.5109,3.5109,0,3.5358,3.5343,3.5314,3.5307,3.5295,3.5261,3.5258,3.5243,3.5212,3.5204,3.5192,3.5158,3.5137,3.5125,3.513,3.5121,3.5118,3.5112,3.5131,3.5133,3.5135,3.514,3.5143,3.5111,3.5111,3.5111,3.5111,0,3.5377,3.5367,3.5368,3.534,3.5329,3.5324,3.5292,3.5283,3.5264,3.5243,3.523,3.5204,3.5181,3.5177,3.5157,3.5161,3.5155,3.5138,3.5118,3.5142,3.5146,3.5148,3.5114,3.5114,3.5113,3.5112,0,0,3.5433,3.5388,3.5389,3.5375,3.5343,3.5334,3.5326,3.5304,3.5297,3.5276,3.5268,3.5246,3.523,3.5215,3.5193,3.5189,3.5205,3.5172,3.5171,3.5178,3.5205,3.5217,3.522,3.5191,3.5191,3.5191,3.5207,0,3.5456,3.5442,3.5415,3.5409,3.5398,3.5365,3.5358,3.5336,3.5316,3.5302,3.5279,3.5264,3.5244,3.5235,3.523,3.5205,3.521,3.5203,3.518,3.518,3.5187,3.5222,3.5236,3.5252,3.5208,3.5208,3.5209,0,3.5482,3.5464,3.5457,3.5424,3.5418,3.5413,3.539,3.5378,3.5352,3.5337,3.532,3.5296,3.5284,3.5266,3.5248,3.5244,3.5232,3.5218,3.5218,3.5214,3.5195,3.5218,3.5256,3.5258,3.5211,3.5211,3.5211,0,3.5521,3.5495,3.5487,3.5477,3.5439,3.5435,3.5419,3.5392,3.5381,3.536,3.5351,3.5329,3.5317,3.5299,3.5268,3.5259,3.5252,3.5233,3.5238,3.5239,3.5238,3.5238,3.5273,3.5232,3.5232,3.5232,3.5232,0,3.555,3.5546,3.5505,3.55,3.5494,3.5462,3.5457,3.5437,3.5414,3.5403,3.5373,3.5363,3.5324,3.5308,3.5284,3.5271,3.5266,3.5252,3.5246,3.5255,3.5256,3.5246,3.5244,3.5233,3.5233,3.5233,3.5233,0,3.5593,3.5565,3.5554,3.5519,3.551,3.5507,3.5476,3.5469,3.5447,3.5433,3.5428,3.5392,3.5372,3.534,3.5311,3.5294,3.5285,3.5275,3.5295,3.529,3.5297,3.5296,3.5326,3.5328,3.5287,3.5288,3.5288,0,3.5613,3.561,3.5574,3.5565,3.555,3.5536,3.5524,3.5492,3.548,3.5449,3.5445,3.5423,3.5404,3.5374,3.5344,3.532,3.5308,3.532,3.5305,3.5313,3.5307,3.5307,3.5305,3.5324,3.5325,3.5325,3.5326,0,3.565,3.5636,3.5621,3.56,3.5586,3.5568,3.5548,3.5542,3.5504,3.5492,3.5472,3.5457,3.5427,3.5405,3.5377,3.5358,3.5335,3.5331,3.533,3.5339,3.535,3.5342,3.5303,3.533,3.533,3.5329,3.5329,3.5329,3.5681,3.5676,3.565,3.5633,3.5615,3.5596,3.5588,3.5564,3.5547,3.5521,3.5503,3.5483,3.5455,3.5416,3.5397,3.538,3.537,3.537,3.537,3.537,3.5373,3.5353,3.5375,3.5375,3.5375,3.5375,3.5374,0,3.5716,3.5697,3.5682,3.5655,3.5641,3.5622,3.5598,3.5587,3.5571,3.5548,3.553,3.5505,3.5483,3.5451,3.5426,3.5418,3.5407,3.5412,3.5412,3.5408,3.5384,3.5386,3.5422,3.5422,3.5422,3.5422,3.5422,3.5422,3.5732,3.5722,3.5705,3.5685,3.5665,3.5648,3.5636,3.5617,3.5598,3.5573,3.5555,3.5535,3.5507,3.5479,3.5457,3.5448,3.5439,3.5448,3.5436,3.5414,3.541,3.5405,3.5407,3.5447,3.5447,3.546,3.5461,3.5461]}]]